MEASAT 3D

Last updated on Wed Oct 29 2025 00:02:50 GMT+0000 (Coordinated Universal Time)

1 52904U 22067B 25300.86024037 -.00000231 00000+0 00000+0 0 9992 2 52904 0.0397 22.8468 0002712 237.7248 177.1162 1.00270776 12318
UTC large
Height (km)
Speed (km/s)
/
Latitude / Longitude
Inclination (degrees)
Orbital Period (minutes)
Azimuth
Elevation
Range (km)
Doppler Factor

Next 0 passes for location: London (51.5072 / 0.1276)

Sorry there are no passes over London.